Tracking 20942 objects as of 15-Jul-2020
HD Live streaming from Space Station
objects crossing your sky now

SL-8 DEB

Track SL-8 DEB now!
10-day predictions


NORAD ID: 25027
Int'l Code: 1992-053D
Perigee: 769.4 km
Apogee: 772.5 km
Inclination: 74.0 °
Period: 100.1 minutes
Semi major axis: 7141 km
RCS: 0.0055 m2 (small)
Launch date: August 12, 1992
Source: Commonwealth of Independent States (former USSR) (CIS)
Launch site: PLESETSK MISSILE AND SPACE COMPLEX (PKMTR)

Note: This is SATELLITE DEBRIS
aabbcc
Your satellite tracking list
Your tracking list is empty




NASA's NSSDC Master Catalog

Two Line Element Set (TLE):
1 25027U 92053D   20196.60534476 +.00000128 +00000-0 +50806-4 0  9992
2 25027 074.0315 152.5697 0002209 085.2292 092.0651 14.38388933217658
Source of the keplerian elements: AFSPC